Regional Weather Roundup
Issued by NWS

Home | Current Version | Previous Version | Graphics & Text | Print | Product List | Glossary On
Versions: 1 2 3 4 5 6 7 8 9 10 11 12 13 14 15 16 17 18 19 20 21 22 23 24 25 26 27 28 29 30 31 32 33 34 35 36 37 38 39 40 41 42 43 44 45 46 47 48 49 50
069
ASUS43 KIND 182359
RWRIN

WEATHER ROUNDUP FOR INDIANA
NATIONAL WEATHER SERVICE INDIANAPOLIS IN
700 PM EST SUN FEB 18 2018

NOTE: "FAIR" INDICATES FEW OR NO CLOUDS BELOW 12,000 FEET WITH NO
SIGNIFICANT WEATHER AND/OR OBSTRUCTIONS TO VISIBILITY.

* - STATION DOES NOT REPORT WEATHER SUCH AS PRECIPITATION OR FOG.

+ - STATION NOT QUALITY CONTROLLED BY THE NATIONAL WEATHER SERVICE.
    USE DATA WITH CAUTION...ESPECIALLY DEWPOINT AND RELATIVE
    HUMIDITY OBSERVATIONS.

INZ001>003-010>013-019-020-190100-
NORTHWEST INDIANA

CITY           SKY/WX    TMP DP  RH WIND       PRES   REMARKS
GARY /AIRPORT/ MOCLDY    37  32  81 SE12G23   30.04F WCI  30
MONTICELLO +   FAIR      40  31  72 SE5       30.09F WCI  36
6HR MIN TEMP:  34; 6HR MAX TEMP:  43;


$$

LMZ046-743>745-190100-
SOUTHERN LAKE MICHIGAN

STATION/POSITION TIME  TEMP    WIND        PRES    WAVE
                       AIR SEA DIR/SP/G            HT
                 (UTC) (F)     (DEG/KT/KT) (MB)    (FT)
BURNS HARBOR     2340   36     160/  9/ 14 1018.3F
MICHIGAN CITY    2330   36     130/ 13/ 17   N/A

$$

INZ004-005-014>016-021>024-190100-
NORTH CENTRAL INDIANA

CITY           SKY/WX    TMP DP  RH WIND       PRES   REMARKS
GOSHEN         FAIR      35  29  78 SE14      30.12F WCI  26
6HR MIN TEMP:  30; 6HR MAX TEMP:  38;

PERU/GRISSOM   FAIR      38  37  99 SE8       30.11F WCI  32
6HR MIN TEMP:  34; 6HR MAX TEMP:  42;

SOUTH BEND     FAIR      33  27  78 SE12      30.10F WCI  24
6HR MIN TEMP:  29; 6HR MAX TEMP:  35;

WARSAW +       FAIR      34  32  93 SE7       30.12F WCI  28

$$

INZ006>009-017-018-025>027-190100-
NORTHEAST INDIANA

CITY           SKY/WX    TMP DP  RH WIND       PRES   REMARKS
FORT WAYNE     MOCLDY    38  31  76 SE8       30.16F WCI  32
6HR MIN TEMP:  32; 6HR MAX TEMP:  41;

KENDALLVILLE + FAIR      34  31  89 SE9       30.15F WCI  27

$$

INZ028-029-035-036-043>045-051>053-190100-
WEST CENTRAL INDIANA

CITY           SKY/WX    TMP DP  RH WIND       PRES   REMARKS
GREENCASTLE +  FAIR      39  30  70 SE8       30.11S WCI  34
LAFAYETTE      FAIR      41  32  70 SE9       30.08F
6HR MIN TEMP:  36; 6HR MAX TEMP:  44;

TERRE HAUTE    FAIR      44  32  62 S7        30.09F
6HR MIN TEMP:  42; 6HR MAX TEMP:  48;


$$

INZ030>032-037>040-046>048-054>057-064-065-190100-
CENTRAL INDIANA

CITY           SKY/WX    TMP DP  RH WIND       PRES   REMARKS
COLUMBUS       MOCLDY    41  28  60 SE7       30.16F
GREENWOOD *+   FAIR     N/A N/A N/A SE8       30.15S
INDIANAPOLIS   MOCLDY    42  31  64 SE9       30.13F
6HR MIN TEMP:  39; 6HR MAX TEMP:  46;

-EAGLE CREEK   FAIR      44  30  57 SE9       30.12S
6HR MIN TEMP:  38; 6HR MAX TEMP:  46;

KOKOMO +       FAIR      37  32  82 SE9       30.13F WCI  30
6HR MIN TEMP:  34; 6HR MAX TEMP:  42;

MT COMFORT *+  FAIR      39  36  87 SE6       30.15R WCI  35
SHELBYVILLE    FAIR      41  33  73 SE9       30.15S
6HR MIN TEMP:  40; 6HR MAX TEMP:  47;


$$

INZ033-034-041-042-049-050-058-059-190100-
EAST CENTRAL INDIANA

CITY           SKY/WX    TMP DP  RH WIND       PRES   REMARKS
MUNCIE         FAIR      41  31  67 SE5       30.15F
6HR MIN TEMP:  37; 6HR MAX TEMP:  46;

RICHMOND +     FAIR      36  34  93 SE9       30.17F WCI  29

$$

INZ060-061-067>069-081>083-085>088-190100-
SOUTHWEST INDIANA

CITY           SKY/WX    TMP DP  RH WIND       PRES   REMARKS
EVANSVILLE     FAIR      48  33  56 SE6       30.11F
6HR MIN TEMP:  46; 6HR MAX TEMP:  50;

HUNTINGBURG +  FAIR      44  33  65 SE7       30.13F
6HR MIN TEMP:  44; 6HR MAX TEMP:  51;


$$

INZ062-063-066-070>080-084-089>092-190100-
SOUTH CENTRAL AND SOUTHEAST INDIANA

CITY           SKY/WX    TMP DP  RH WIND       PRES   REMARKS
BLOOMINGTON    FAIR      44  31  60 SE10      30.12F
6HR MIN TEMP:  43; 6HR MAX TEMP:  49;

SEYMOUR +      FAIR      45  34  65 SE6       30.15F

$$





USA.gov is the U.S. government's official web portal to all federal, state and local government web resources and services.